This is the latest recevied weather packets stored in our database for station/object E25RIV-1. If no packets are shown the sender has not sent any weather packets the latest 10 day(s).
| Time | Temp. | Humidity | Pressure | Rain* | Wind** | Luminosity | Snow |
|---|---|---|---|---|---|---|---|
| 1778122159 | 34.44° C | 70% | 1003 hPa | - | - | 0 W/m² | - |
| 1778121535 | 35° C | 70% | 1002 hPa | - | - | 0 W/m² | - |
| 1778120911 | 34.44° C | 74% | 1002 hPa | - | - | 0 W/m² | - |
| 1778120287 | 33.89° C | 78% | 1003 hPa | - | - | 0 W/m² | - |
| 1778119663 | 33.33° C | 81% | 1004 hPa | - | - | 0 W/m² | - |
| 1778119039 | 33.33° C | 84% | 1004 hPa | - | - | 0 W/m² | - |
| 1778118415 | 33.33° C | 84% | 1005 hPa | - | - | 0 W/m² | - |
| 1778117791 | 33.33° C | 80% | 1004 hPa | - | - | 0 W/m² | - |
| 1778117167 | 33.89° C | 82% | 1004 hPa | - | - | 0 W/m² | - |
| 1778116541 | 33.89° C | 81% | 1003 hPa | - | - | 0 W/m² | - |
| 1778115917 | 33.33° C | 86% | 1004 hPa | - | - | 0 W/m² | - |
| 1778115293 | 33.33° C | 83% | 1003 hPa | - | - | 0 W/m² | - |
| 1778114669 | 33.33° C | 84% | 1003 hPa | - | - | 0 W/m² | - |
| 1778114045 | 32.78° C | 91% | 1004 hPa | - | - | 0 W/m² | - |
| 1778113421 | 32.78° C | 93% | 1003 hPa | - | - | 0 W/m² | - |
| 1778112797 | 31.67° C | 99% | 1004 hPa | - | - | 0 W/m² | - |
| 1778112173 | 31.11° C | 99% | 1004 hPa | - | - | 0 W/m² | - |
| 1778111549 | 29.44° C | 99% | 1004 hPa | - | - | 0 W/m² | - |
| 1778110925 | 28.33° C | 99% | 1004 hPa | - | - | 0 W/m² | - |
| 1778110301 | 27.78° C | 99% | 1004 hPa | - | - | 0 W/m² | - |
| 1778109677 | 27.22° C | 99% | 1004 hPa | - | - | 0 W/m² | - |
| 1778109053 | 27.22° C | 99% | 1004 hPa | - | - | 0 W/m² | - |
| 1778108429 | 27.22° C | 99% | 1004 hPa | - | - | 0 W/m² | - |
| 1778107805 | 27.22° C | 99% | 1004 hPa | - | - | 0 W/m² | - |
| 1778107181 | 27.22° C | 99% | 1004 hPa | - | - | 0 W/m² | - |
* Rain since midnight (hover to see other rain measurements)
** Current wind speed in m/s (hover to see current wind gust speed)